User: anonymous   Login
Location: Unspecified
(0.0000°N, 0.0000°E)
Time: 16:02:40
(UTC+00:00)
Language:

LEMUR 2 SOKOLSKY - Orbit

View from above orbital plane
View from above orbital plane
View from above satellite
View from above satellite

Ground track
Ground track

The orbit data is extracted from the following two-line orbital elements,

1 41872U 16062D   18344.78563802 +.00000525 +00000-0 +34484-4 0  9995
2 41872 051.6903 030.5924 0002537 146.1485 213.9656 15.24730044113510
Epoch (UTC): 10 December 2018 18:51:19
Eccentricity: 0.0002537
inclination: 51.6903°
perigee height: 490 km
apogee height: 493 km
right ascension of ascending node: 30.5924°
argument of perigee: 146.1485°
revolutions per day: 15.24730044
mean anomaly at epoch: 213.9656°
orbit number at epoch: 11351

The dashed part of the orbit path shows where the satellite is in the earth's shadow,  

DLR